SWA535 KBUR-KPHX

Flight info

Callsign SWA535
Flight time 1h 11m
Altitude 37000
Route SLAPP2 HEC PRFUM WOTRO BRUSR1
Aircraft B737/M-SDE2E3FGHIRWXY/LB1

Departure

Time 2026-05-06 00:01
Airport Hollywood Burbank/Bob Hope Airport (KBUR)

Arrival

Time 2026-05-06 01:12
Airport Phoenix Sky Harbor International Airport (KPHX)
Time Latitude Longitude Altitude Speed Heading
2026-05-05 23:44 34.19680 -118.35106 717 ft 0 kts 180°
2026-05-05 23:49 34.19695 -118.35106 720 ft 4 kts 198°
2026-05-05 23:49 34.19714 -118.35089 717 ft 4 kts 253°
2026-05-05 23:50 34.19716 -118.35074 718 ft 0 kts 271°
2026-05-05 23:53 34.19716 -118.35085 719 ft 4 kts 271°
2026-05-05 23:53 34.19717 -118.35126 718 ft 7 kts 271°
2026-05-05 23:53 34.19718 -118.35195 719 ft 9 kts 271°
2026-05-05 23:54 34.19719 -118.35267 721 ft 9 kts 271°
2026-05-05 23:54 34.19720 -118.35349 722 ft 11 kts 271°
2026-05-05 23:54 34.19721 -118.35438 723 ft 10 kts 270°
2026-05-05 23:54 34.19721 -118.35525 724 ft 10 kts 265°
2026-05-05 23:55 34.19702 -118.35605 724 ft 10 kts 248°
2026-05-05 23:55 34.19679 -118.35682 723 ft 10 kts 260°
2026-05-05 23:55 34.19681 -118.35761 725 ft 9 kts 272°
2026-05-05 23:55 34.19726 -118.35799 725 ft 9 kts 358°
2026-05-05 23:56 34.19811 -118.35796 727 ft 15 kts
2026-05-05 23:56 34.19916 -118.35798 727 ft 15 kts 353°
2026-05-05 23:56 34.20014 -118.35824 728 ft 14 kts 347°
2026-05-05 23:56 34.20119 -118.35852 730 ft 17 kts 347°
2026-05-05 23:57 34.20246 -118.35888 730 ft 20 kts 347°
2026-05-05 23:57 34.20382 -118.35924 732 ft 20 kts 347°
2026-05-05 23:57 34.20513 -118.35962 734 ft 19 kts 347°
2026-05-05 23:57 34.20640 -118.35995 738 ft 18 kts 346°
2026-05-05 23:58 34.20763 -118.36030 739 ft 18 kts 347°
2026-05-05 23:58 34.20881 -118.36063 742 ft 17 kts 347°
2026-05-05 23:58 34.20995 -118.36094 745 ft 17 kts 347°
2026-05-05 23:58 34.21101 -118.36123 746 ft 14 kts 346°
2026-05-05 23:59 34.21172 -118.36142 746 ft 5 kts 359°
2026-05-05 23:59 34.21193 -118.36135 746 ft 4 kts 24°
2026-05-05 23:59 34.21218 -118.36093 745 ft 9 kts 71°
2026-05-05 23:59 34.21220 -118.36046 744 ft 4 kts 133°
2026-05-06 00:00 34.21199 -118.36038 745 ft 2 kts 167°
2026-05-06 00:00 34.20976 -118.35977 741 ft 73 kts 167°
2026-05-06 00:00 34.20231 -118.35781 759 ft 139 kts 169°
2026-05-06 00:00 34.19205 -118.35490 1298 ft 160 kts 167°
2026-05-06 00:01 34.18092 -118.35510 2093 ft 169 kts 208°
2026-05-06 00:01 34.17180 -118.36420 2977 ft 176 kts 220°
2026-05-06 00:01 34.16192 -118.37444 3614 ft 198 kts 221°
2026-05-06 00:01 34.15286 -118.38733 4144 ft 212 kts 252°
2026-05-06 00:02 34.15151 -118.40539 4781 ft 225 kts 278°
2026-05-06 00:02 34.15842 -118.42359 5104 ft 259 kts 315°
2026-05-06 00:02 34.17414 -118.43394 6156 ft 260 kts 348°
2026-05-06 00:02 34.19198 -118.43331 7398 ft 259 kts 12°
2026-05-06 00:03 34.20939 -118.42701 8459 ft 261 kts 16°
2026-05-06 00:03 34.22683 -118.42072 9568 ft 264 kts 14°
2026-05-06 00:03 34.24488 -118.41473 10388 ft 273 kts 13°
2026-05-06 00:03 34.26387 -118.40857 10936 ft 294 kts 14°
2026-05-06 00:04 34.28395 -118.40185 11734 ft 301 kts 15°
2026-05-06 00:04 34.30383 -118.39530 12985 ft 294 kts 15°
2026-05-06 00:04 34.32401 -118.38845 13648 ft 311 kts 16°
2026-05-06 00:04 34.34544 -118.38104 14196 ft 326 kts 15°
2026-05-06 00:05 34.38955 -118.36597 15885 ft 336 kts 17°
2026-05-06 00:05 34.41152 -118.35671 16977 ft 335 kts 21°
2026-05-06 00:05 34.43337 -118.34630 17786 ft 344 kts 21°
2026-05-06 00:06 34.45598 -118.33507 18346 ft 356 kts 27°
2026-05-06 00:06 34.47712 -118.31953 18806 ft 354 kts 37°
2026-05-06 00:06 34.49593 -118.30113 18975 ft 347 kts 40°
2026-05-06 00:06 34.51461 -118.28206 18983 ft 353 kts 40°
2026-05-06 00:07 34.53349 -118.26271 18981 ft 357 kts 40°
2026-05-06 00:07 34.55242 -118.24344 18980 ft 355 kts 40°
2026-05-06 00:07 34.57137 -118.22430 18978 ft 353 kts 40°
2026-05-06 00:07 34.59031 -118.20526 18984 ft 355 kts 40°
2026-05-06 00:08 34.60930 -118.18622 18982 ft 354 kts 40°
2026-05-06 00:08 34.62832 -118.16714 18983 ft 353 kts 40°
2026-05-06 00:08 34.64688 -118.14773 18973 ft 352 kts 46°
2026-05-06 00:08 34.66136 -118.12366 19311 ft 357 kts 60°
2026-05-06 00:09 34.67123 -118.09556 19959 ft 364 kts 74°
2026-05-06 00:09 34.67644 -118.06573 21060 ft 359 kts 78°
2026-05-06 00:09 34.68115 -118.03584 21921 ft 361 kts 77°
2026-05-06 00:09 34.68599 -118.00595 22877 ft 361 kts 77°
2026-05-06 00:10 34.69096 -117.97582 23564 ft 367 kts 78°
2026-05-06 00:10 34.69416 -117.94470 24125 ft 374 kts 84°
2026-05-06 00:10 34.69598 -117.91289 24664 ft 381 kts 85°
2026-05-06 00:10 34.69757 -117.88063 25280 ft 384 kts 85°
2026-05-06 00:11 34.69925 -117.84825 25984 ft 384 kts 84°
2026-05-06 00:11 34.70109 -117.81576 26595 ft 387 kts 84°
2026-05-06 00:11 34.70303 -117.78304 27216 ft 390 kts 84°
2026-05-06 00:11 34.70496 -117.75011 27845 ft 392 kts 84°
2026-05-06 00:12 34.70646 -117.71691 28454 ft 395 kts 85°
2026-05-06 00:12 34.70771 -117.68357 29026 ft 397 kts 84°
2026-05-06 00:12 34.70900 -117.64991 29629 ft 400 kts 84°
2026-05-06 00:12 34.71025 -117.61605 30140 ft 403 kts 84°
2026-05-06 00:13 34.71153 -117.58184 30476 ft 408 kts 84°
2026-05-06 00:13 34.71285 -117.54712 30774 ft 414 kts 84°
2026-05-06 00:13 34.71420 -117.51197 31090 ft 419 kts 84°
2026-05-06 00:13 34.71626 -117.47645 31407 ft 423 kts 82°
2026-05-06 00:14 34.71914 -117.44081 31818 ft 424 kts 82°
2026-05-06 00:14 34.72233 -117.40503 32126 ft 428 kts 81°
2026-05-06 00:14 34.72558 -117.36884 32410 ft 433 kts 82°
2026-05-06 00:14 34.72880 -117.33234 32720 ft 436 kts 82°
2026-05-06 00:15 34.73194 -117.29558 33052 ft 438 kts 82°
2026-05-06 00:15 34.73502 -117.25864 33388 ft 441 kts 83°
2026-05-06 00:15 34.73808 -117.22113 33469 ft 450 kts 83°
2026-05-06 00:15 34.74115 -117.18318 33636 ft 454 kts 81°
2026-05-06 00:16 34.74424 -117.14479 33918 ft 457 kts 83°
2026-05-06 00:16 34.74733 -117.10637 34206 ft 458 kts 83°
2026-05-06 00:16 34.75023 -117.06984 34486 ft 459 kts 84°
2026-05-06 00:16 34.75319 -117.03266 34745 ft 460 kts 83°
2026-05-06 00:17 34.75630 -116.99354 35087 ft 460 kts 81°
2026-05-06 00:17 34.75932 -116.95533 35347 ft 461 kts 83°
2026-05-06 00:17 34.76235 -116.91684 35718 ft 459 kts 83°
2026-05-06 00:17 34.76537 -116.87815 36013 ft 460 kts 82°
2026-05-06 00:18 34.76838 -116.83938 36260 ft 462 kts 84°
2026-05-06 00:18 34.77138 -116.80040 36503 ft 464 kts 83°
2026-05-06 00:18 34.77440 -116.76124 36728 ft 466 kts 84°
2026-05-06 00:18 34.77741 -116.72209 36919 ft 467 kts 83°
2026-05-06 00:19 34.78046 -116.68247 36905 ft 472 kts 84°
2026-05-06 00:19 34.78653 -116.60279 36901 ft 476 kts 84°
2026-05-06 00:20 34.79247 -116.52271 36894 ft 475 kts 84°
2026-05-06 00:20 34.80189 -116.44336 36872 ft 473 kts 73°
2026-05-06 00:21 34.82350 -116.36815 36871 ft 470 kts 69°
2026-05-06 00:21 34.84558 -116.29573 36863 ft 470 kts 68°
2026-05-06 00:22 34.86792 -116.22100 36864 ft 470 kts 70°
2026-05-06 00:22 34.88991 -116.14606 36869 ft 470 kts 70°
2026-05-06 00:23 34.91175 -116.07097 36869 ft 470 kts 70°
2026-05-06 00:23 34.93355 -115.99577 36877 ft 471 kts 70°
2026-05-06 00:24 34.95535 -115.92041 36880 ft 472 kts 70°
2026-05-06 00:24 34.97713 -115.84495 36885 ft 472 kts 70°
2026-05-06 00:25 34.99891 -115.76929 36883 ft 473 kts 70°
2026-05-06 00:25 35.02066 -115.69355 36891 ft 473 kts 70°
2026-05-06 00:26 35.04239 -115.61766 36886 ft 474 kts 71°
2026-05-06 00:26 35.06045 -115.55442 36890 ft 475 kts 71°
2026-05-06 00:27 35.08188 -115.47922 36898 ft 477 kts 71°
2026-05-06 00:27 35.10361 -115.40276 36897 ft 478 kts 71°
2026-05-06 00:28 35.12535 -115.32600 36878 ft 479 kts 71°
2026-05-06 00:28 35.14709 -115.24909 36874 ft 479 kts 71°
2026-05-06 00:29 35.16876 -115.17219 36875 ft 478 kts 71°
2026-05-06 00:29 35.19009 -115.09629 36870 ft 478 kts 71°
2026-05-06 00:30 35.21165 -115.01936 36875 ft 478 kts 71°
2026-05-06 00:30 35.23314 -114.94246 36849 ft 478 kts 71°
2026-05-06 00:31 35.25457 -114.86557 36861 ft 478 kts 71°
2026-05-06 00:31 35.27597 -114.78857 36858 ft 478 kts 71°
2026-05-06 00:32 35.29729 -114.71163 36841 ft 478 kts 71°
2026-05-06 00:32 35.31842 -114.63519 36832 ft 477 kts 71°
2026-05-06 00:33 35.33963 -114.55832 36834 ft 477 kts 71°
2026-05-06 00:33 35.36075 -114.48136 36829 ft 477 kts 71°
2026-05-06 00:34 35.38199 -114.40381 36823 ft 477 kts 71°
2026-05-06 00:34 35.40292 -114.32723 36822 ft 477 kts 72°
2026-05-06 00:35 35.42391 -114.25008 36833 ft 477 kts 72°
2026-05-06 00:35 35.44489 -114.17295 36852 ft 477 kts 72°
2026-05-06 00:36 35.46579 -114.09581 36850 ft 476 kts 72°
2026-05-06 00:36 35.48661 -114.01878 36852 ft 475 kts 72°
2026-05-06 00:36 35.49481 -113.97960 36831 ft 474 kts 86°
2026-05-06 00:37 35.49359 -113.93952 36881 ft 469 kts 102°
2026-05-06 00:37 35.48438 -113.90138 36850 ft 465 kts 118°
2026-05-06 00:37 35.46826 -113.86732 36894 ft 462 kts 126°
2026-05-06 00:38 35.43217 -113.80211 36885 ft 464 kts 127°
2026-05-06 00:38 35.39564 -113.73666 36871 ft 467 kts 127°
2026-05-06 00:39 35.35940 -113.67040 36868 ft 469 kts 127°
2026-05-06 00:39 35.32315 -113.60360 36867 ft 472 kts 127°
2026-05-06 00:40 35.28673 -113.53660 36795 ft 471 kts 127°
2026-05-06 00:40 35.26849 -113.50308 35980 ft 475 kts 127°
2026-05-06 00:40 35.25024 -113.46962 35380 ft 473 kts 127°
2026-05-06 00:40 35.23194 -113.43609 34609 ft 475 kts 127°
2026-05-06 00:41 35.21354 -113.40245 33806 ft 477 kts 127°
2026-05-06 00:41 35.19504 -113.36861 32885 ft 479 kts 126°
2026-05-06 00:41 35.17655 -113.33483 32107 ft 477 kts 126°
2026-05-06 00:41 35.15823 -113.30135 31541 ft 471 kts 126°
2026-05-06 00:42 35.14015 -113.26825 30942 ft 466 kts 126°
2026-05-06 00:42 35.12223 -113.23545 30369 ft 461 kts 126°
2026-05-06 00:42 35.10451 -113.20303 29784 ft 457 kts 125°
2026-05-06 00:42 35.08695 -113.17096 29106 ft 452 kts 125°
2026-05-06 00:43 35.06963 -113.13938 28679 ft 442 kts 125°
2026-05-06 00:43 35.05278 -113.10881 28476 ft 429 kts 125°
2026-05-06 00:43 35.03626 -113.07890 28245 ft 423 kts 126°
2026-05-06 00:43 35.01962 -113.04887 28064 ft 431 kts 126°
2026-05-06 00:44 35.00266 -113.01833 27817 ft 437 kts 126°
2026-05-06 00:44 34.98562 -112.98763 27576 ft 437 kts 126°
2026-05-06 00:44 34.96866 -112.95705 27339 ft 434 kts 126°
2026-05-06 00:44 34.95201 -112.92703 27115 ft 432 kts 126°
2026-05-06 00:45 34.93522 -112.89678 26901 ft 430 kts 126°
2026-05-06 00:45 34.91850 -112.86669 26680 ft 428 kts 126°
2026-05-06 00:45 34.90185 -112.83675 26445 ft 426 kts 126°
2026-05-06 00:45 34.88528 -112.80700 26239 ft 424 kts 126°
2026-05-06 00:46 34.86874 -112.77732 26014 ft 422 kts 126°
2026-05-06 00:46 34.85228 -112.74780 25803 ft 420 kts 126°
2026-05-06 00:46 34.83591 -112.71845 25594 ft 418 kts 126°
2026-05-06 00:46 34.81962 -112.68925 25374 ft 416 kts 125°
2026-05-06 00:47 34.80340 -112.66020 25158 ft 413 kts 126°
2026-05-06 00:47 34.78726 -112.63137 24944 ft 411 kts 126°
2026-05-06 00:47 34.77121 -112.60267 24739 ft 410 kts 126°
2026-05-06 00:47 34.75517 -112.57411 24531 ft 408 kts 126°
2026-05-06 00:48 34.73918 -112.54562 24328 ft 407 kts 126°
2026-05-06 00:48 34.72327 -112.51727 24120 ft 405 kts 125°
2026-05-06 00:48 34.70736 -112.48907 24051 ft 403 kts 126°
2026-05-06 00:48 34.68841 -112.46411 23676 ft 403 kts 140°
2026-05-06 00:49 34.66668 -112.44298 23234 ft 398 kts 142°
2026-05-06 00:49 34.64491 -112.42247 22758 ft 394 kts 142°
2026-05-06 00:49 34.62343 -112.40217 22343 ft 389 kts 142°
2026-05-06 00:49 34.60322 -112.38282 21954 ft 384 kts 143°
2026-05-06 00:50 34.58336 -112.36363 21567 ft 382 kts 143°
2026-05-06 00:50 34.56269 -112.34353 21171 ft 380 kts 142°
2026-05-06 00:50 34.54205 -112.32344 20757 ft 380 kts 142°
2026-05-06 00:50 34.52149 -112.30339 20356 ft 381 kts 143°
2026-05-06 00:51 34.50081 -112.28321 19946 ft 381 kts 143°
2026-05-06 00:51 34.48017 -112.26310 19538 ft 380 kts 143°
2026-05-06 00:51 34.45959 -112.24312 19130 ft 377 kts 144°
2026-05-06 00:51 34.43767 -112.22796 18695 ft 357 kts 163°
2026-05-06 00:52 34.41410 -112.22061 18415 ft 346 kts 170°
2026-05-06 00:52 34.39059 -112.21464 18064 ft 345 kts 171°
2026-05-06 00:52 34.36713 -112.20891 17699 ft 343 kts 172°
2026-05-06 00:52 34.34407 -112.20323 17371 ft 343 kts 171°
2026-05-06 00:53 34.32082 -112.19741 17151 ft 340 kts 172°
2026-05-06 00:53 34.29762 -112.19154 16828 ft 341 kts 172°
2026-05-06 00:53 34.27409 -112.18554 16520 ft 341 kts 171°
2026-05-06 00:53 34.25345 -112.18026 16229 ft 342 kts 171°
2026-05-06 00:54 34.23101 -112.17446 15929 ft 342 kts 170°
2026-05-06 00:54 34.20745 -112.16836 15598 ft 342 kts 171°
2026-05-06 00:54 34.18419 -112.16236 15295 ft 342 kts 170°
2026-05-06 00:54 34.16094 -112.15638 14979 ft 342 kts 172°
2026-05-06 00:55 34.13774 -112.15039 14647 ft 339 kts 171°
2026-05-06 00:55 34.11500 -112.14451 14330 ft 329 kts 171°
2026-05-06 00:55 34.09355 -112.13896 14023 ft 316 kts 171°
2026-05-06 00:55 34.07259 -112.13248 13732 ft 307 kts 165°
2026-05-06 00:56 34.05251 -112.12438 13447 ft 302 kts 163°
2026-05-06 00:56 34.03383 -112.11646 13164 ft 298 kts 164°
2026-05-06 00:56 34.01427 -112.10819 12871 ft 297 kts 164°
2026-05-06 00:56 33.99500 -112.10016 12593 ft 297 kts 164°
2026-05-06 00:57 33.97526 -112.09202 12318 ft 296 kts 165°
2026-05-06 00:57 33.95580 -112.08405 12033 ft 295 kts 165°
2026-05-06 00:57 33.93638 -112.07613 11764 ft 294 kts 165°
2026-05-06 00:57 33.91758 -112.06849 11492 ft 293 kts 164°
2026-05-06 00:58 33.89853 -112.06076 11224 ft 293 kts 165°
2026-05-06 00:58 33.87930 -112.05296 10948 ft 292 kts 165°
2026-05-06 00:58 33.86008 -112.04516 10659 ft 291 kts 165°
2026-05-06 00:58 33.84087 -112.03735 10367 ft 291 kts 165°
2026-05-06 00:59 33.82183 -112.02962 10079 ft 287 kts 166°
2026-05-06 00:59 33.80307 -112.02204 9798 ft 283 kts 165°
2026-05-06 00:59 33.78435 -112.01446 9496 ft 284 kts 165°
2026-05-06 00:59 33.76561 -112.00688 9186 ft 285 kts 165°
2026-05-06 01:00 33.74690 -111.99929 8975 ft 282 kts 164°
2026-05-06 01:00 33.72850 -111.99185 8807 ft 277 kts 164°
2026-05-06 01:00 33.71025 -111.98447 8633 ft 277 kts 165°
2026-05-06 01:00 33.69185 -111.97705 8492 ft 281 kts 164°
2026-05-06 01:01 33.67320 -111.96954 8336 ft 284 kts 165°
2026-05-06 01:01 33.65481 -111.96210 8142 ft 272 kts 165°
2026-05-06 01:01 33.63734 -111.95501 7975 ft 260 kts 165°
2026-05-06 01:01 33.62034 -111.94814 7832 ft 257 kts 165°
2026-05-06 01:02 33.60340 -111.94130 7684 ft 257 kts 166°
2026-05-06 01:02 33.58642 -111.93446 7535 ft 258 kts 166°
2026-05-06 01:02 33.56949 -111.92762 7370 ft 253 kts 164°
2026-05-06 01:02 33.55325 -111.92104 7236 ft 239 kts 166°
2026-05-06 01:03 33.53844 -111.91270 7071 ft 240 kts 142°
2026-05-06 01:03 33.52907 -111.89628 6804 ft 242 kts 108°
2026-05-06 01:03 33.52679 -111.87631 6286 ft 245 kts 94°
2026-05-06 01:03 33.52656 -111.85619 5799 ft 245 kts 91°
2026-05-06 01:04 33.52654 -111.83643 5345 ft 245 kts 92°
2026-05-06 01:04 33.52646 -111.81719 4906 ft 245 kts 92°
2026-05-06 01:04 33.52656 -111.79693 4503 ft 241 kts 91°
2026-05-06 01:04 33.52660 -111.77679 4067 ft 242 kts 92°
2026-05-06 01:05 33.52623 -111.75662 3789 ft 236 kts 98°
2026-05-06 01:05 33.52084 -111.73999 3722 ft 211 kts 134°
2026-05-06 01:05 33.50964 -111.73100 3724 ft 190 kts 171°
2026-05-06 01:05 33.49685 -111.72880 3731 ft 185 kts 180°
2026-05-06 01:06 33.48393 -111.72716 3734 ft 189 kts 180°
2026-05-06 01:06 33.47077 -111.72610 3731 ft 188 kts 190°
2026-05-06 01:06 33.45937 -111.73244 3734 ft 180 kts 229°
2026-05-06 01:06 33.45386 -111.74562 3741 ft 179 kts 253°
2026-05-06 01:07 33.45025 -111.75994 3739 ft 181 kts 253°
2026-05-06 01:07 33.44659 -111.77445 3733 ft 183 kts 254°
2026-05-06 01:07 33.44301 -111.78893 3731 ft 179 kts 253°
2026-05-06 01:07 33.44081 -111.80311 3715 ft 175 kts 270°
2026-05-06 01:08 33.44100 -111.81752 3724 ft 176 kts 268°
2026-05-06 01:08 33.44087 -111.83234 3680 ft 182 kts 268°
2026-05-06 01:08 33.44081 -111.84765 3495 ft 183 kts 269°
2026-05-06 01:08 33.44080 -111.86263 3250 ft 176 kts 268°
2026-05-06 01:09 33.44079 -111.87458 3041 ft 174 kts 269°
2026-05-06 01:09 33.44080 -111.88592 2861 ft 175 kts 268°
2026-05-06 01:09 33.44079 -111.89995 2656 ft 176 kts 270°
2026-05-06 01:09 33.44079 -111.91433 2433 ft 169 kts 269°
2026-05-06 01:10 33.44080 -111.92776 2228 ft 154 kts 269°
2026-05-06 01:10 33.44080 -111.93987 2019 ft 136 kts 269°
2026-05-06 01:10 33.44080 -111.95071 1865 ft 127 kts 268°
2026-05-06 01:10 33.44081 -111.96143 1699 ft 128 kts 269°
2026-05-06 01:11 33.44080 -111.97216 1537 ft 129 kts 270°
2026-05-06 01:11 33.44082 -111.97918 1399 ft 126 kts 269°
2026-05-06 01:11 33.44087 -111.98956 1224 ft 123 kts 269°
2026-05-06 01:11 33.44084 -111.99949 1134 ft 110 kts 269°
2026-05-06 01:12 33.44085 -112.00554 1129 ft 28 kts 269°
2026-05-06 01:12 33.44063 -112.00708 1131 ft 12 kts 228°
2026-05-06 01:12 33.43989 -112.00739 1132 ft 11 kts 179°
2026-05-06 01:12 33.43913 -112.00723 1132 ft 11 kts 139°
2026-05-06 01:13 33.43901 -112.00635 1130 ft 11 kts 91°
2026-05-06 01:13 33.43901 -112.00539 1130 ft 13 kts 89°
2026-05-06 01:13 33.43898 -112.00421 1130 ft 14 kts 110°
2026-05-06 01:13 33.43813 -112.00382 1131 ft 14 kts 180°
2026-05-06 01:14 33.43589 -112.00382 1131 ft 19 kts 179°
2026-05-06 01:14 33.43462 -112.00382 1134 ft 17 kts 181°
2026-05-06 01:14 33.43379 -112.00382 1133 ft 7 kts 180°
2026-05-06 01:15 33.43348 -112.00382 1133 ft 0 kts 179°
2026-05-06 01:15 33.43339 -112.00382 1133 ft 5 kts 181°
2026-05-06 01:15 33.43297 -112.00363 1133 ft 8 kts 133°
2026-05-06 01:15 33.43284 -112.00277 1132 ft 13 kts 91°
2026-05-06 01:16 33.43285 -112.00153 1130 ft 17 kts 90°
2026-05-06 01:16 33.43284 -112.00004 1130 ft 19 kts 90°
2026-05-06 01:16 33.43283 -111.99852 1130 ft 18 kts 90°
2026-05-06 01:16 33.43282 -111.99704 1130 ft 17 kts 90°
2026-05-06 01:17 33.43283 -111.99581 1130 ft 10 kts 85°
2026-05-06 01:17 33.43330 -111.99532 1133 ft 10 kts
2026-05-06 01:17 33.43392 -111.99533 1132 ft 6 kts
2026-05-06 01:17 33.43404 -111.99504 1130 ft 2 kts 90°
2026-05-06 01:18 33.43404 -111.99484 1130 ft 2 kts 87°
2026-05-06 01:18 33.43405 -111.99476 1134 ft 0 kts 88°